Snowfall_Accumulation
0.3 1.9 3.9 1.8 1.6 1.8 2.3 3.0 2.6 1.2 0.7 1.0 0.8 0.5 0.1 0.0 0.1 0.2 0.1 0.0 0.0 0.0 0.0 0.0 0.0 0.0 0.0 0.0 0.0 0.0 0.0 0.0 0.0 0.0 0.0 0.0 0.0 0.0 0.0 0.0 0.0 0.0 0.0 0.0
3.0 4.1 1.4 0.4 0.6 1.8 2.8 3.7 2.8 1.3 0.5 1.2 1.1 0.7 0.2 0.1 0.1 0.1 0.1 0.1 0.1 0.0 0.0 0.0 0.0 0.0 0.0 0.0 0.0 0.0 0.0 0.0 0.0 0.0 0.0 0.0 0.0 0.0 0.0 0.0 0.0 0.0 0.0 0.0
4.0 2.0 0.3 1.2 2.2 3.5 3.1 3.1 2.4 2.0 1.1 1.1 2.0 1.6 0.3 0.3 0.1 0.1 0.2 0.1 0.1 0.1 0.1 0.1 0.0 0.0 0.0 0.0 0.0 0.0 0.0 0.0 0.0 0.0 0.0 0.0 0.0 0.0 0.0 0.0 0.0 0.0 0.0 0.0
2.8 0.8 0.5 1.8 2.7 3.6 4.3 1.3 1.4 1.8 3.2 3.7 3.3 5.0 0.6 0.4 0.3 0.4 0.3 0.2 0.2 0.2 0.2 0.2 0.1 0.1 0.1 0.1 0.1 0.0 0.0 0.0 0.0 0.0 0.0 0.0 0.0 0.0 0.0 0.0 0.0 0.0 0.0 0.0
3.6 1.5 1.2 2.3 1.7 1.9 2.5 0.8 1.3 2.1 3.7 4.9 2.7 4.8 1.5 0.4 0.5 0.4 0.4 0.3 0.3 0.4 0.4 0.3 0.1 0.1 0.2 0.2 0.2 0.0 0.0 0.0 0.0 0.0 0.0 0.0 0.0 0.0 0.0 0.0 0.0 0.0 0.0 0.0
3.1 0.8 1.8 1.7 0.5 0.8 1.3 1.4 2.1 3.1 5.2 11.0 3.4 4.0 2.8 1.6 1.7 0.9 0.6 0.4 0.5 0.4 0.5 0.3 0.2 0.1 0.2 0.3 0.2 0.0 0.1 0.0 0.0 0.0 0.0 0.0 0.0 0.0 0.0 0.0 0.0 0.0 0.1 0.1
5.0 2.6 1.4 0.8 2.1 1.6 2.9 8.2 15.6 16.0 15.9 8.8 0.9 2.6 2.7 1.8 1.4 1.4 0.9 0.6 0.5 0.4 0.6 0.7 0.4 0.3 0.2 0.3 0.3 0.2 0.1 0.0 0.0 0.0 0.0 0.0 0.0 0.0 0.0 0.0 0.0 0.1 0.2 0.2
7.2 5.9 2.3 1.3 2.1 3.4 3.2 6.2 12.3 11.7 7.4 2.6 1.2 2.6 2.5 1.3 0.8 0.7 0.5 0.4 0.2 0.2 0.3 0.5 0.6 0.4 0.1 0.2 0.2 0.3 0.2 0.1 0.0 0.0 0.0 0.0 0.0 0.0 0.0 0.0 0.0 0.1 0.2 0.2
7.3 5.0 1.9 0.9 1.0 1.9 4.8 5.9 3.8 7.3 5.7 3.6 2.4 2.1 1.5 0.6 0.4 0.4 0.3 0.3 0.3 0.3 0.3 0.4 0.4 0.4 0.3 0.2 0.2 0.4 0.3 0.2 0.1 0.0 0.0 0.0 0.0 0.0 0.0 0.0 0.0 0.1 0.1 0.1
7.0 6.1 2.4 0.5 1.2 1.6 2.1 3.6 6.2 11.3 9.8 5.1 2.7 2.4 2.5 1.4 1.1 0.8 0.5 0.5 0.4 0.3 0.3 0.3 0.3 0.4 0.3 0.3 0.2 0.2 0.3 0.2 0.1 0.1 0.1 0.1 0.0 0.0 0.0 0.0 0.0 0.0 0.0 0.0
5.9 7.7 4.2 3.3 4.9 5.6 4.4 5.8 8.3 10.1 8.0 6.0 3.8 3.3 2.9 2.2 1.7 1.5 1.0 0.8 0.6 0.5 0.5 0.5 0.4 0.5 0.4 0.5 0.5 0.2 0.1 0.2 0.1 0.1 0.1 0.1 0.1 0.0 0.0 0.0 0.0 0.0 0.0 0.0
5.9 8.4 6.2 3.2 2.1 2.3 3.4 5.7 7.9 11.8 8.4 4.5 4.1 3.4 1.9 1.6 1.6 1.5 1.1 0.8 0.6 0.4 0.3 0.3 0.3 0.5 0.5 0.6 0.4 0.4 0.2 0.2 0.1 0.1 0.1 0.1 0.2 0.0 0.0 0.0 0.0 0.0 0.0 0.0
9.3 12.4 12.0 5.1 3.7 3.0 5.2 4.9 5.7 7.3 7.5 5.0 3.8 2.6 1.0 1.0 0.9 0.8 0.9 0.9 0.6 0.3 0.2 0.3 0.4 0.6 0.7 0.7 0.5 0.3 0.3 0.1 0.2 0.3 0.1 0.0 0.0 0.0 0.1 0.1 0.0 0.0 0.1 0.0
8.7 13.3 9.3 7.8 5.8 5.8 5.7 4.2 4.1 7.1 9.3 4.9 2.3 1.7 1.1 1.0 1.0 1.0 0.8 1.0 0.7 0.5 0.3 0.3 0.5 0.7 0.9 0.6 0.4 0.3 0.1 0.1 0.2 0.2 0.3 0.1 0.1 0.3 0.2 0.1 0.0 0.1 0.0 0.1
8.9 11.0 4.9 2.6 2.0 2.8 3.2 2.8 3.0 4.4 4.4 3.7 1.8 1.7 1.5 1.2 1.2 1.2 1.0 0.9 0.8 0.7 0.4 0.4 0.7 0.9 0.9 0.7 0.6 0.1 0.1 0.1 0.1 0.3 0.3 0.1 0.2 0.0 0.3 0.2 0.2 0.0 0.2 0.1
8.9 10.1 4.8 2.6 1.5 2.0 2.5 1.9 2.0 2.3 1.9 1.8 1.4 1.6 1.3 1.2 1.0 1.1 1.0 1.2 1.3 1.0 0.7 0.6 0.7 1.1 1.2 0.9 0.5 0.2 0.1 0.1 0.1 0.1 0.2 0.2 0.3 0.3 0.3 0.0 0.1 0.1 0.4 0.4
9.8 10.7 9.3 5.0 1.9 3.6 4.6 2.3 2.0 2.2 2.0 1.9 2.1 2.1 1.3 1.3 1.2 1.4 1.3 1.3 1.4 1.3 0.8 0.8 0.8 1.1 1.2 0.9 0.5 0.2 0.2 0.1 0.1 0.1 0.2 0.2 0.3 0.4 0.3 0.1 0.1 0.2 0.3 0.4
8.4 10.2 12.9 8.5 6.2 9.0 3.3 1.7 1.7 2.2 2.3 2.0 1.7 1.3 1.4 1.6 1.3 1.2 1.4 1.5 1.4 1.3 1.3 0.9 0.7 1.1 0.9 0.7 0.3 0.2 0.2 0.2 0.1 0.1 0.2 0.4 0.3 0.4 0.2 0.1 0.1 0.2 0.2 0.3
3.7 9.0 14.1 12.0 8.6 4.2 2.1 2.1 2.9 3.6 3.7 2.2 1.6 1.0 0.9 1.0 0.7 1.4 1.1 1.0 1.4 1.1 1.2 0.9 0.6 0.7 0.7 0.5 0.1 0.1 0.1 0.2 0.2 0.2 0.3 0.4 0.3 0.3 0.2 0.3 0.3 0.4 0.7 0.3
3.2 7.1 14.5 13.2 9.7 4.6 2.9 1.9 2.1 3.2 4.7 2.4 1.7 1.5 1.3 1.5 2.4 2.2 1.4 1.1 1.1 1.0 0.8 0.5 0.3 0.4 0.5 0.3 0.1 0.1 0.1 0.1 0.2 0.3 0.5 0.4 0.2 0.2 0.3 0.3 0.2 0.4 0.6 0.7
7.9 12.4 14.6 10.9 8.5 3.1 2.2 2.0 1.8 5.3 6.2 2.7 2.2 2.1 2.0 2.4 2.8 2.4 1.5 1.5 1.3 1.0 0.8 0.3 0.3 0.4 0.4 0.3 0.1 0.1 0.1 0.1 0.1 0.2 0.4 0.6 0.2 0.2 0.2 0.2 0.2 0.3 0.5 0.6
6.4 9.4 9.3 8.4 8.9 4.3 2.3 3.1 5.4 6.0 3.0 2.2 2.2 2.0 2.0 1.9 1.5 1.5 1.5 1.6 1.5 1.1 0.8 0.4 0.5 0.6 0.3 0.4 0.2 0.3 0.2 0.1 0.1 0.2 0.4 0.6 0.3 0.3 0.2 0.3 0.3 0.4 0.4 0.6
4.8 6.2 7.1 6.7 5.0 3.1 2.5 3.5 3.3 2.7 2.4 2.0 1.9 1.8 1.8 1.7 1.7 1.4 1.6 1.7 1.8 1.2 0.8 0.5 0.7 0.6 0.3 0.4 0.4 0.5 0.2 0.1 0.1 0.2 0.3 0.5 0.4 0.4 0.4 0.3 0.4 0.4 0.9 1.0
3.9 3.3 4.6 4.5 2.9 2.2 1.7 1.8 1.6 1.5 1.8 1.5 1.5 1.6 1.7 1.7 1.5 1.4 1.4 1.5 1.7 1.3 1.0 0.9 0.8 0.8 0.8 0.4 0.5 0.5 0.4 0.3 0.3 0.2 0.2 0.5 0.5 0.6 0.5 0.4 0.5 0.9 1.2 2.2
3.2 3.3 3.6 3.2 2.0 1.6 1.4 1.4 1.3 1.0 1.1 1.0 1.1 1.2 1.3 1.3 1.4 1.4 1.5 1.8 1.8 1.4 1.1 1.1 1.1 1.1 1.0 0.7 0.6 0.6 0.6 0.5 0.4 0.3 0.3 0.4 0.5 0.8 0.7 0.7 0.7 1.1 1.3 2.8
2.0 2.5 3.3 2.7 1.9 2.3 2.0 1.5 1.1 1.0 1.0 1.2 1.3 1.2 1.0 1.1 1.4 1.4 1.4 1.6 1.7 1.9 1.4 1.3 1.2 1.3 1.3 1.1 0.9 0.8 0.8 0.7 0.6 0.5 0.4 0.5 0.8 0.8 0.8 0.8 0.8 0.7 1.0 1.5